Vertical_Velocity
-1 -0 0 0 1 2 0 1 -0 -1 -0 -1 -1 -1 -1 -0 0 -0 -0 -1 -0 1 2 1 -0 -0 -0 2 1 -0 -1 -0 0 2 1 1 1 -0 -0 -1 -0 -0 -1
-1 -0 -0 -0 0 -1 -0 0 0 1 -1 -0 -1 -1 -1 -1 -2 -0 -1 -0 -1 -0 1 0 1 -1 0 1 0 1 0 0 -1 -1 1 0 0 0 -1 -1 -1 -1 -1
-1 1 -0 -0 1 3 3 -0 -0 -1 0 0 -1 -1 -2 -1 -1 -3 -2 -1 0 -1 -1 1 1 -0 -1 -0 1 0 2 1 1 -0 -2 -1 0 -0 0 -0 0 -1 -0
-1 -2 2 0 0 2 -1 -3 -0 3 1 0 0 -1 -1 -1 0 -2 -2 -1 -1 -1 -0 0 1 2 1 -1 -0 0 -0 0 1 -1 2 -0 -0 -0 0 0 1 0 0
-0 -1 -1 0 2 0 1 -0 -0 -1 -1 -1 1 0 -2 -2 -2 -1 -1 -2 -2 -2 -1 -0 0 1 1 2 1 -0 -0 -0 -0 0 1 2 1 0 0 1 1 0 -0
-0 -2 -2 1 1 -1 -2 1 0 -1 -1 -1 1 -0 -2 -1 -2 -2 -0 -1 -0 -1 -1 -1 -1 0 -0 1 1 0 2 -1 0 1 -0 0 0 0 -0 -0 -1 -1 -0
-1 -0 -2 1 -3 3 -1 -0 1 -0 -1 -0 0 -2 -1 0 -1 -2 -2 -1 -0 -0 -1 -0 -1 -1 1 -0 1 1 1 -2 1 2 -0 1 1 1 1 0 1 0 0
1 1 -1 -1 0 -1 1 -1 2 1 0 -2 -1 -0 -2 -1 -0 -0 0 -0 1 1 -1 -1 -1 -1 -1 -0 0 0 2 -2 2 1 1 0 1 0 0 0 1 0 0
-2 0 -1 -0 -1 3 -2 1 -1 1 -0 0 -1 0 -1 -1 -1 -2 0 -1 2 2 1 0 -1 -1 -1 -1 -1 -0 1 0 0 -1 0 1 0 1 1 0 1 1 1
-3 -1 -0 -0 -0 -3 -2 -1 -0 0 0 0 0 1 -1 0 -1 -1 -1 -0 -0 1 2 1 -0 0 -0 -0 -0 0 0 1 -3 3 2 1 0 -1 0 -0 0 1 2
-2 -2 -1 -0 -1 -0 -1 -1 -1 -2 -1 -1 -0 -0 0 -0 -1 0 -0 1 1 1 0 0 0 -0 -0 -0 -0 0 -0 1 -2 -0 1 0 1 1 0 0 -0 0 -0
-2 -2 -1 -1 -0 -2 0 -1 2 1 -0 -1 -0 0 1 -1 0 1 -0 -1 1 0 1 -1 -0 0 1 2 1 1 1 0 1 -0 1 -0 -0 -0 0 0 0 0 1
1 -1 -0 -0 1 1 -1 0 -1 -0 -1 2 -0 -1 0 0 -0 0 1 1 -1 -0 -1 -1 -0 -1 -0 -1 1 3 2 -1 0 -1 0 0 -0 0 0 0 -0 -0 -0
1 2 1 -1 -1 -1 -0 -0 1 0 -2 -0 1 0 -2 -0 -0 0 0 -1 1 1 0 0 -1 -1 -1 1 0 1 2 1 1 -1 0 1 0 -0 -0 -0 1 1 -0
4 3 3 3 1 -0 3 -0 0 1 2 -1 -1 0 0 1 1 -2 -0 0 -1 1 1 0 0 -0 0 -1 -1 1 1 0 0 -1 -1 -0 -1 -1 -2 -1 -1 -1 -1
-0 -2 -1 -1 -5 -5 -4 -1 0 -0 -1 0 -0 2 1 1 2 -0 1 0 2 0 -2 -0 1 -0 1 2 1 -0 0 2 1 1 -1 0 1 1 -1 0 -0 -2 -1
-0 -1 0 2 0 3 2 1 1 0 1 1 -0 -3 -2 1 1 1 2 -1 1 2 1 2 0 0 -0 -1 2 -1 -2 0 2 2 1 -1 -1 -0 -0 -0 0 -1 -0
-0 -2 -1 -5 -3 -1 2 1 -2 -2 -1 2 3 1 -1 -3 2 -1 2 4 1 -3 2 3 -2 -1 1 0 1 4 2 -3 1 2 3 -0 1 -1 -1 -0 1 -0 -2
0 0 3 -2 -0 -4 -4 -2 -2 1 -3 1 -1 2 7 1 -0 -2 1 4 5 -1 2 5 0 -0 -1 2 1 -3 1 0 -0 -2 3 1 0 1 -1 -1 -0 1 -1
-3 -2 -1 -0 -1 -5 -6 -5 -1 -3 2 -3 3 -1 -2 1 2 -2 1 2 2 1 3 4 2 -2 1 0 -3 -3 -1 -1 2 2 2 -2 1 -0 -1 -1 -2 -1 0
-5 -3 -2 2 3 0 -1 -5 -6 -2 -1 -1 -6 1 3 -3 3 2 -1 1 -0 3 6 -1 1 3 4 1 -1 -2 2 -4 -1 1 1 2 2 2 -1 -1 -1 1 -1
1 -2 -3 -6 -2 -2 -0 3 -1 -4 1 1 2 -1 6 4 -1 2 3 2 -2 2 2 1 3 3 4 4 6 -2 -2 -0 5 3 -2 1 4 -0 3 1 -1 -1 0
-3 -3 -4 -2 0 -4 -5 -3 4 1 5 7 7 6 4 2 2 -4 2 1 1 -3 -1 2 -18 26 6 6 8 5 -5 3 0 1 16 -6 8 -1 0 1 0 0 -1
-0 -3 -3 -5 -4 -3 -4 -1 1 -2 -2 4 4 -1 2 5 11 5 -1 4 4 -0 -3 1 3 -23 113 5 5 4 2 -1 1 -1 10 3 -1 5 2 0 1 -1 -1
-2 -4 -4 -2 -2 -1 -2 -3 -2 -0 3 5 4 1 -5 6 6 6 1 -3 2 1 2 -4 2 1 -0 -4 -5 8 6 -1 19 9 3 3 -5 3 11 3 -1 3 0
-4 1 -2 -1 -3 1 -1 -1 -2 -3 -2 1 4 1 5 5 8 3 -2 -2 -0 3 1 1 2 4 2 4 2 -1 2 -6 -3 -1 1 6 -4 2 13 6 9 7 4
Height
5878 5878 5878 5879 5880 5881 5883 5883 5884 5885 5886 5886 5887 5888 5889 5890 5890 5890 5890 5890 5890 5890 5891 5890 5890 5889 5889 5888 5888 5888 5888 5887 5887 5887 5887 5886 5885 5885 5884 5884 5883 5882 5881
5876 5877 5877 5877 5877 5878 5879 5881 5882 5883 5883 5884 5885 5886 5887 5888 5888 5889 5889 5889 5889 5889 5889 5889 5889 5889 5889 5888 5888 5887 5888 5887 5887 5887 5886 5886 5886 5885 5884 5883 5882 5882 5881
5874 5875 5875 5876 5876 5876 5877 5878 5879 5880 5881 5882 5883 5883 5884 5885 5886 5887 5887 5888 5888 5888 5888 5888 5888 5889 5889 5888 5888 5888 5887 5887 5886 5886 5886 5885 5885 5885 5884 5883 5882 5881 5880
5872 5872 5873 5874 5874 5874 5874 5875 5876 5876 5878 5879 5879 5880 5881 5882 5883 5884 5885 5886 5886 5886 5886 5886 5886 5887 5887 5887 5887 5887 5887 5886 5886 5885 5885 5884 5884 5884 5883 5882 5881 5881 5880
5870 5870 5870 5872 5872 5873 5873 5873 5874 5874 5875 5876 5876 5877 5878 5879 5880 5881 5882 5883 5884 5884 5884 5884 5884 5884 5885 5885 5885 5886 5885 5885 5884 5884 5884 5884 5883 5883 5882 5882 5881 5880 5879
5866 5867 5867 5868 5869 5869 5870 5871 5872 5873 5873 5874 5874 5874 5874 5875 5876 5877 5879 5880 5881 5881 5882 5882 5882 5882 5882 5882 5883 5883 5884 5882 5883 5883 5882 5882 5881 5881 5880 5880 5879 5878 5878
5862 5863 5863 5863 5866 5866 5867 5868 5869 5870 5870 5870 5871 5872 5872 5871 5871 5872 5873 5874 5876 5877 5877 5878 5878 5878 5879 5879 5879 5880 5880 5879 5880 5880 5879 5879 5879 5879 5878 5877 5877 5876 5875
5857 5858 5858 5859 5860 5862 5862 5864 5864 5865 5867 5867 5868 5868 5868 5867 5867 5867 5867 5868 5870 5871 5872 5873 5873 5874 5874 5875 5875 5876 5876 5875 5876 5876 5876 5876 5876 5875 5875 5874 5873 5873 5872
5851 5852 5853 5853 5854 5856 5857 5858 5859 5860 5861 5862 5863 5864 5865 5864 5863 5863 5863 5864 5864 5865 5866 5867 5867 5868 5869 5870 5870 5871 5871 5872 5872 5872 5872 5872 5872 5871 5871 5870 5869 5869 5868
5843 5845 5846 5847 5848 5849 5851 5852 5853 5855 5856 5856 5857 5859 5860 5859 5859 5859 5860 5860 5860 5860 5861 5862 5862 5862 5863 5864 5865 5865 5866 5867 5866 5868 5867 5867 5867 5866 5866 5865 5865 5864 5864
5836 5838 5839 5840 5841 5842 5843 5845 5846 5847 5849 5850 5852 5852 5853 5854 5854 5855 5856 5856 5855 5855 5856 5855 5856 5856 5858 5858 5859 5859 5860 5861 5860 5862 5862 5862 5862 5861 5861 5860 5860 5859 5859
5828 5830 5831 5832 5834 5835 5836 5838 5839 5840 5841 5842 5844 5845 5846 5847 5847 5849 5850 5850 5851 5851 5851 5850 5850 5850 5851 5852 5853 5854 5854 5854 5854 5855 5855 5856 5856 5855 5855 5855 5854 5854 5853
5823 5822 5824 5824 5826 5828 5829 5830 5831 5832 5834 5835 5835 5837 5838 5839 5840 5841 5843 5844 5844 5845 5846 5846 5845 5845 5845 5845 5846 5847 5848 5849 5849 5849 5849 5849 5849 5848 5848 5848 5848 5847 5847
5819 5820 5819 5819 5820 5821 5821 5822 5823 5824 5825 5827 5827 5827 5829 5831 5832 5833 5834 5836 5837 5838 5838 5839 5840 5839 5839 5839 5839 5840 5841 5842 5843 5842 5842 5843 5843 5842 5842 5842 5841 5842 5842
5815 5815 5815 5814 5813 5813 5814 5814 5814 5816 5816 5816 5817 5818 5819 5821 5823 5824 5825 5826 5828 5829 5830 5831 5832 5833 5833 5833 5833 5834 5834 5835 5836 5835 5835 5836 5835 5835 5835 5835 5835 5835 5835
5807 5807 5807 5807 5806 5805 5805 5805 5806 5807 5808 5808 5808 5808 5809 5812 5813 5814 5816 5816 5817 5819 5821 5822 5823 5824 5825 5825 5826 5826 5827 5828 5829 5829 5828 5828 5828 5828 5827 5826 5826 5827 5827
5799 5799 5798 5798 5798 5798 5798 5796 5796 5797 5798 5800 5800 5799 5799 5800 5802 5803 5805 5806 5808 5808 5810 5812 5813 5814 5816 5816 5817 5818 5819 5819 5820 5821 5822 5820 5820 5820 5819 5819 5819 5819 5819
5789 5789 5788 5787 5787 5787 5788 5787 5787 5787 5788 5789 5790 5791 5790 5791 5791 5791 5793 5796 5797 5798 5799 5800 5802 5804 5805 5807 5808 5810 5811 5809 5810 5812 5813 5814 5812 5811 5811 5812 5812 5811 5811
5778 5779 5779 5778 5777 5776 5775 5777 5777 5777 5777 5778 5778 5779 5780 5780 5781 5781 5782 5783 5785 5786 5787 5789 5790 5792 5793 5796 5797 5797 5799 5800 5801 5801 5803 5803 5804 5803 5803 5804 5804 5804 5804
5768 5768 5768 5767 5765 5765 5764 5763 5763 5764 5764 5764 5765 5765 5764 5766 5768 5769 5770 5772 5771 5773 5775 5777 5778 5780 5782 5784 5785 5786 5787 5789 5792 5793 5793 5794 5795 5795 5794 5795 5794 5796 5796
5755 5754 5753 5753 5752 5751 5750 5749 5748 5748 5748 5749 5750 5749 5749 5749 5751 5754 5756 5758 5759 5761 5764 5765 5767 5767 5769 5772 5773 5775 5776 5777 5778 5781 5782 5782 5784 5784 5784 5785 5785 5786 5785
5744 5742 5741 5739 5738 5736 5735 5733 5731 5731 5731 5731 5730 5731 5731 5731 5733 5735 5739 5742 5744 5746 5749 5752 5754 5756 5757 5759 5760 5762 5766 5766 5768 5770 5771 5771 5772 5772 5773 5775 5775 5775 5775
5732 5730 5727 5726 5724 5721 5717 5714 5712 5709 5710 5709 5708 5708 5710 5709 5711 5714 5717 5722 5726 5729 5734 5738 5745 5736 5746 5746 5745 5747 5750 5756 5756 5758 5760 5759 5760 5760 5761 5762 5762 5764 5765
5718 5716 5714 5712 5710 5707 5703 5699 5695 5690 5689 5686 5684 5684 5687 5688 5691 5693 5696 5700 5706 5711 5717 5722 5729 5732 5717 5730 5733 5735 5736 5741 5744 5745 5745 5747 5748 5749 5749 5748 5749 5751 5752
5708 5705 5703 5702 5699 5695 5690 5686 5680 5674 5668 5665 5663 5662 5665 5666 5670 5673 5675 5680 5686 5692 5700 5706 5711 5715 5716 5718 5722 5723 5724 5727 5726 5729 5732 5734 5736 5739 5736 5735 5737 5740 5739
5699 5696 5694 5691 5688 5684 5678 5673 5665 5658 5651 5647 5646 5645 5646 5650 5651 5652 5656 5661 5667 5673 5680 5688 5694 5698 5701 5704 5708 5712 5714 5714 5716 5714 5716 5719 5722 5725 5724 5724 5726 5726 5724